GW2413 Weather Reports


Display with metric or nautical units.
time (UTC)temp
F
wind
direction
speed
MPH
gust
MPH
rain 1hr
in
rain 24hr
in
rain mn
in
humidity
%
barometer
mb
20260510132232 72 200 1.0 2.0 0.00 0.00 0.00 58 1013.4
20260510131729 71 119 0.0 0.0 0.00 0.00 0.00 59 1013.3
20260510131227 71 99 0.0 0.0 0.00 0.00 0.00 59 1013.1
20260510130723 71 115 0.0 0.0 0.00 0.00 0.00 59 1012.9
20260510130220 70 117 0.0 0.0 0.00 0.00 0.00 65 1013.4
20260510125716 70 90 0.0 0.0 0.00 0.00 0.00 65 1013.5
20260510125212 69 95 0.0 0.0 0.00 0.00 0.00 67 1013.4
20260510124709 68 108 0.0 0.0 0.00 0.00 0.00 69 1013.8
20260510124207 69 129 0.0 0.0 0.00 0.00 0.00 68 1013.5
20260510123702 67 103 0.0 0.0 0.00 0.00 0.00 71 1013.5
20260510123158 67 122 1.0 1.0 0.00 0.00 0.00 73 1013.6
20260510122655 66 88 0.0 0.0 0.00 0.00 0.00 73 1013.6
20260510122151 65 99 0.0 0.0 0.00 0.00 0.00 75 1013.9
20260510121647 64 83 0.0 0.0 0.00 0.00 0.00 77 1013.5
20260510121145 64 77 0.0 0.0 0.00 0.00 0.00 78 1013.4
20260510120642 62 101 0.0 1.0 0.00 0.00 0.00 81 1013.3
20260510120138 61 59 0.0 0.0 0.00 0.00 0.00 85 1013.2
20260510115634 60 61 0.0 1.0 0.00 0.00 0.00 87 1013.3
20260510115133 59 68 0.0 1.0 0.00 0.00 0.00 92 1013.1
20260510114628 59 77 0.0 1.0 0.00 0.00 0.00 95 1013.1
20260510114124 57 117 0.0 0.0 0.00 0.00 0.00 97 1012.9
20260510113619 57 118 0.0 0.0 0.00 0.00 0.00 98 1012.7
20260510113117 56 118 0.0 0.0 0.00 0.00 0.00 98 1012.6
20260510112614 56 124 0.0 0.0 0.00 0.00 0.00 98 1012.6
20260510112110 55 124 0.0 0.0 0.00 0.00 0.00 98 1012.8
20260510111606 55 94 0.0 0.0 0.00 0.00 0.00 98 1012.7
20260510111102 54 94 0.0 0.0 0.00 0.00 0.00 98 1012.4
20260510110558 54 94 0.0 0.0 0.00 0.00 0.00 98 1012.3
20260510110055 53 97 0.0 0.0 0.00 0.00 0.00 98 1012.5
20260510105551 53 98 0.0 0.0 0.00 0.00 0.00 99 1012.0
20260510105045 52 98 0.0 0.0 0.00 0.00 0.00 98 1012.2
20260510104542 51 98 0.0 0.0 0.00 0.00 0.00 98 1011.9
20260510104039 51 98 0.0 0.0 0.00 0.00 0.00 98 1012.2
20260510103536 51 98 0.0 0.0 0.00 0.00 0.00 98 1011.8
20260510103032 51 98 0.0 0.0 0.00 0.00 0.00 98 1012.0
20260510102528 50 98 0.0 0.0 0.00 0.00 0.00 98 1012.0
20260510102024 50 98 0.0 0.0 0.00 0.00 0.00 98 1011.7
20260510101522 50 98 0.0 0.0 0.00 0.00 0.00 98 1011.7
20260510101021 50 98 0.0 0.0 0.00 0.00 0.00 98 1011.7
20260510100516 50 98 0.0 0.0 0.00 0.00 0.00 98 1011.7
20260510100013 50 98 0.0 0.0 0.00 0.00 0.00 98 1011.6
20260510095509 51 98 0.0 0.0 0.00 0.00 0.00 98 1011.5
20260510095008 51 98 0.0 0.0 0.00 0.00 0.00 98 1011.6
20260510094503 51 98 0.0 0.0 0.00 0.00 0.00 98 1011.5
20260510093959 50 98 0.0 0.0 0.00 0.00 0.00 98 1011.6
20260510093455 50 98 0.0 0.0 0.00 0.00 0.00 98 1011.7
20260510092951 50 98 0.0 0.0 0.00 0.00 0.00 98 1011.7
20260510092449 50 98 0.0 0.0 0.00 0.00 0.00 98 1011.4
20260510091948 50 98 0.0 0.0 0.00 0.00 0.00 98 1011.6
20260510091446 51 98 0.0 0.0 0.00 0.00 0.00 97 1011.5
20260510090942 51 98 0.0 0.0 0.00 0.00 0.00 98 1011.6
20260510090439 51 98 0.0 0.0 0.00 0.00 0.00 98 1011.4
20260510085934 51 98 0.0 0.0 0.00 0.00 0.00 98 1011.4
20260510085430 51 98 0.0 0.0 0.00 0.00 0.00 97 1011.5
20260510084925 51 98 0.0 0.0 0.00 0.00 0.00 97 1011.4
20260510084423 51 98 0.0 0.0 0.00 0.00 0.00 97 1011.3
20260510083920 51 98 0.0 0.0 0.00 0.00 0.00 97 1011.1
20260510083416 52 98 0.0 0.0 0.00 0.00 0.00 97 1011.4
20260510082911 52 98 0.0 0.0 0.00 0.00 0.00 97 1011.3
20260510082410 52 98 0.0 0.0 0.00 0.00 0.00 97 1010.9
20260510081908 52 98 0.0 0.0 0.00 0.00 0.00 97 1010.9
20260510081404 51 98 0.0 0.0 0.00 0.00 0.00 97 1010.9
20260510080901 51 98 0.0 0.0 0.00 0.00 0.00 97 1011.0
20260510080400 52 98 0.0 0.0 0.00 0.00 0.00 97 1010.8
20260510075857 53 98 0.0 0.0 0.00 0.00 0.00 97 1010.9
20260510075355 53 98 0.0 0.0 0.00 0.00 0.00 96 1010.6
20260510074851 53 98 0.0 0.0 0.00 0.00 0.00 96 1010.6
20260510074348 53 98 0.0 0.0 0.00 0.00 0.00 96 1010.6
20260510073844 52 98 0.0 0.0 0.00 0.00 0.00 96 1010.6
20260510073340 52 102 0.0 0.0 0.00 0.00 0.00 96 1010.5
20260510072836 52 102 0.0 0.0 0.00 0.00 0.00 96 1010.6
20260510072334 53 102 0.0 0.0 0.00 0.00 0.00 96 1010.5
20260510071830 53 102 0.0 0.0 0.00 0.00 0.00 96 1010.5
20260510071326 53 102 0.0 0.0 0.00 0.00 0.00 96 1010.5
20260510070825 53 102 0.0 0.0 0.00 0.00 0.00 96 1010.4
20260510070321 54 102 0.0 0.0 0.00 0.00 0.00 96 1010.4
20260510065816 54 102 0.0 0.0 0.00 0.00 0.00 95 1010.3
20260510065313 54 102 0.0 0.0 0.00 0.00 0.00 95 1010.3
20260510064810 54 102 0.0 0.0 0.00 0.00 0.00 95 1010.1
20260510064308 54 102 0.0 0.0 0.00 0.00 0.00 95 1010.3
20260510063803 54 102 0.0 0.0 0.00 0.00 0.00 95 1010.2
20260510063300 55 102 0.0 0.0 0.00 0.00 0.00 95 1010.2
20260510062757 54 102 0.0 0.0 0.00 0.00 0.00 94 1010.3
20260510062252 55 102 0.0 0.0 0.00 0.00 0.00 94 1010.0
20260510061748 54 102 0.0 0.0 0.00 0.00 0.00 94 1010.2
20260510061245 55 102 0.0 0.0 0.00 0.00 0.00 94 1010.3
20260510060741 55 102 0.0 0.0 0.00 0.00 0.00 94 1010.0
20260510060238 55 102 0.0 0.0 0.00 0.00 0.00 94 1010.0
20260510055735 55 102 0.0 0.0 0.00 0.00 0.00 93 1010.2
20260510055233 55 102 0.0 0.0 0.00 0.00 0.00 93 1010.2
20260510054732 55 102 0.0 0.0 0.00 0.00 0.00 93 1010.3
20260510054229 55 102 0.0 0.0 0.00 0.00 0.00 92 1010.2
20260510053728 55 102 0.0 0.0 0.00 0.00 0.00 92 1010.0
20260510053225 56 102 0.0 0.0 0.00 0.00 0.00 92 1009.8
20260510052721 56 102 0.0 0.0 0.00 0.00 0.00 92 1010.1
20260510052217 56 102 0.0 0.0 0.00 0.00 0.00 91 1010.3
20260510051713 56 102 0.0 0.0 0.00 0.00 0.00 91 1010.2
20260510051210 57 102 0.0 0.0 0.00 0.00 0.00 91 1010.1
20260510050707 57 102 0.0 0.0 0.00 0.00 0.00 91 1010.2
20260510050204 57 99 0.0 0.0 0.00 0.00 0.00 91 1010.1
20260510045701 57 99 0.0 0.0 0.00 0.00 0.00 90 1010.0
20260510045157 57 99 0.0 0.0 0.00 0.00 0.00 90 1010.1
20260510044653 57 99 0.0 0.0 0.00 0.00 0.00 89 1010.0
20260510044151 57 99 0.0 0.0 0.00 0.00 0.00 89 1010.0
20260510043647 58 99 0.0 0.0 0.00 0.00 0.00 88 1010.3
20260510043143 58 99 0.0 0.0 0.00 0.00 0.00 88 1010.1
20260510042641 58 115 0.0 0.0 0.00 0.00 0.00 88 1010.3
20260510042137 58 130 0.0 0.0 0.00 0.00 0.00 88 1010.2
20260510041634 58 96 0.0 0.0 0.00 0.00 0.00 88 1010.3
20260510041131 58 98 0.0 0.0 0.00 0.00 0.00 88 1009.9
20260510040628 58 98 0.0 0.0 0.00 0.00 0.00 87 1010.2
20260510040125 58 98 0.0 0.0 0.00 0.00 0.00 86 1010.0
20260510035620 59 98 0.0 0.0 0.00 0.00 0.00 86 1010.0
20260510035115 59 98 0.0 0.0 0.00 0.00 0.00 86 1010.0
20260510034613 59 98 0.0 0.0 0.00 0.00 0.00 85 1009.9
20260510034110 59 98 0.0 0.0 0.00 0.00 0.00 85 1009.9
20260510033606 60 98 0.0 0.0 0.00 0.00 0.00 84 1009.8
20260510033104 60 100 0.0 0.0 0.00 0.00 0.00 84 1009.8
20260510032600 60 100 0.0 0.0 0.00 0.00 0.00 83 1009.6
20260510032055 60 100 0.0 0.0 0.00 0.00 0.00 83 1009.9
20260510031550 60 100 0.0 0.0 0.00 0.00 0.00 82 1009.7
20260510031047 61 100 0.0 0.0 0.00 0.00 0.00 81 1009.8
20260510030542 61 100 0.0 0.0 0.00 0.00 0.00 81 1009.8
20260510030040 62 100 0.0 0.0 0.00 0.00 0.00 79 1009.9
20260510025537 62 100 0.0 0.0 0.00 0.00 0.00 79 1009.8
20260510025034 62 101 0.0 0.0 0.00 0.00 0.00 78 1009.8
20260510024531 63 101 0.0 0.0 0.00 0.00 0.00 77 1009.9
20260510024027 63 103 0.0 0.0 0.00 0.00 0.00 76 1009.6
20260510023523 63 96 0.0 0.0 0.00 0.00 0.00 75 1009.5
20260510023021 63 97 0.0 0.0 0.00 0.00 0.00 75 1009.5
20260510022520 64 97 0.0 0.0 0.00 0.00 0.00 74 1009.7
20260510022014 64 97 0.0 0.0 0.00 0.00 0.00 73 1009.8
20260510021511 65 97 0.0 0.0 0.00 0.00 0.00 72 1009.5
20260510021009 65 99 0.0 0.0 0.00 0.00 0.00 71 1009.4
20260510020503 66 99 0.0 0.0 0.00 0.00 0.00 70 1009.4
20260510015959 65 99 0.0 0.0 0.00 0.00 0.00 71 1009.2
20260510015454 65 93 0.0 0.0 0.00 0.00 0.00 71 1009.1
20260510014950 65 96 0.0 0.0 0.00 0.00 0.00 72 1009.3
20260510014448 64 99 0.0 0.0 0.00 0.00 0.00 72 1009.3
20260510013944 64 99 0.0 0.0 0.00 0.00 0.00 72 1009.2
20260510013438 64 74 0.0 0.0 0.00 0.00 0.00 73 1008.9
20260510012935 63 74 0.0 0.0 0.00 0.00 0.00 74 1008.9
20260510012429 63 74 0.0 0.0 0.00 0.00 0.00 73 1008.6
20260510011925 64 74 0.0 0.0 0.00 0.00 0.00 73 1008.9
20260510011420 64 74 0.0 0.0 0.00 0.00 0.00 72 1008.7
20260510010916 64 74 0.0 0.0 0.00 0.00 0.00 71 1008.7
20260510010413 64 74 0.0 0.0 0.00 0.00 0.00 71 1008.6
20260510005910 65 74 0.0 0.0 0.00 0.00 0.00 70 1008.5
20260510005406 65 74 0.0 0.0 0.00 0.00 0.00 69 1008.6
20260510004904 65 74 0.0 0.0 0.00 0.00 0.00 70 1008.7
20260510004401 65 74 0.0 0.0 0.00 0.00 0.00 69 1008.5
20260510003859 65 74 0.0 0.0 0.00 0.00 0.00 69 1008.5
20260510003356 66 74 0.0 0.0 0.00 0.00 0.00 67 1008.4
20260510002854 66 74 0.0 0.0 0.00 0.00 0.00 66 1008.3
20260510002352 67 74 0.0 0.0 0.00 0.00 0.00 65 1008.5
20260510001848 67 74 0.0 0.0 0.00 0.00 0.00 63 1008.2
20260510001346 68 74 0.0 0.0 0.00 0.00 0.00 63 1008.2
20260510000842 69 74 0.0 0.0 0.00 0.00 0.00 62 1008.3
20260510000341 69 74 0.0 0.0 0.00 0.00 0.00 60 1008.1
20260509235836 70 74 0.0 0.0 0.00 0.00 0.00 58 1008.0
20260509235333 71 74 0.0 0.0 0.00 0.00 0.00 57 1008.2
20260509234829 71 120 0.0 0.0 0.00 0.00 0.00 56 1008.2
20260509234326 71 102 0.0 0.0 0.00 0.00 0.00 57 1007.7
20260509233824 72 114 0.0 0.0 0.00 0.00 0.00 55 1008.1
20260509233322 72 118 2.0 2.0 0.00 0.00 0.00 55 1008.2
20260509232817 72 235 3.0 3.0 0.00 0.00 0.00 54 1007.9
20260509232315 72 122 0.0 1.0 0.00 0.00 0.00 54 1008.0
20260509231811 73 151 0.0 0.0 0.00 0.00 0.00 53 1008.0
20260509231308 73 167 2.0 3.0 0.00 0.00 0.00 53 1007.8
20260509230806 73 175 1.0 1.0 0.00 0.00 0.00 53 1007.9
20260509230302 73 237 1.0 2.0 0.00 0.00 0.00 52 1008.0
20260509225757 73 102 0.0 0.0 0.00 0.00 0.00 53 1007.8
20260509225254 74 126 0.0 1.0 0.00 0.00 0.00 52 1007.9
20260509224749 74 213 0.0 1.0 0.00 0.00 0.00 53 1007.9
20260509224247 74 117 0.0 1.0 0.00 0.00 0.00 51 1008.1
20260509223744 73 85 1.0 1.0 0.00 0.00 0.00 52 1008.4
20260509223240 73 118 0.0 0.0 0.00 0.00 0.00 54 1008.2
20260509222737 74 112 1.0 1.0 0.00 0.00 0.00 54 1008.1
20260509222233 73 116 0.0 0.0 0.00 0.00 0.00 54 1008.2
20260509221728 73 126 0.0 1.0 0.00 0.00 0.00 54 1008.1
20260509221225 73 220 3.0 3.0 0.00 0.00 0.00 53 1008.1
20260509220721 73 128 0.0 0.0 0.00 0.00 0.00 53 1008.3
20260509220218 74 213 2.0 2.0 0.00 0.00 0.00 52 1008.2
20260509215713 74 98 2.0 2.0 0.00 0.00 0.00 52 1008.3
20260509215210 74 273 2.0 2.0 0.00 0.00 0.00 51 1008.3
20260509214707 74 205 1.0 1.0 0.00 0.00 0.00 52 1008.1
20260509214204 74 112 0.0 0.0 0.00 0.00 0.00 52 1008.3
20260509213701 74 235 1.0 3.0 0.00 0.00 0.00 52 1008.2
20260509213156 75 115 1.0 2.0 0.00 0.00 0.00 51 1008.1
20260509212654 77 103 1.0 2.0 0.00 0.00 0.00 49 1008.1
20260509212151 77 147 2.0 3.0 0.00 0.00 0.00 48 1008.2
20260509211647 77 217 2.0 3.0 0.00 0.00 0.00 48 1008.2
20260509211144 77 178 0.0 1.0 0.00 0.00 0.00 50 1008.1
20260509210640 77 140 0.0 0.0 0.00 0.00 0.00 49 1008.0
20260509210132 76 247 3.0 3.0 0.00 0.00 0.00 49 1008.2
20260509205627 77 249 2.0 3.0 0.00 0.00 0.00 49 1008.1
20260509205121 76 210 1.0 2.0 0.00 0.00 0.00 51 1008.1
20260509204617 76 202 1.0 2.0 0.00 0.00 0.00 51 1007.9
20260509204109 75 177 2.0 2.0 0.00 0.00 0.00 51 1008.0
20260509203604 75 236 3.0 5.0 0.00 0.00 0.00 51 1007.9
20260509203103 76 86 0.0 1.0 0.00 0.00 0.00 51 1008.0
20260509202557 75 91 3.0 3.0 0.00 0.00 0.00 50 1008.1
20260509202053 77 119 2.0 2.0 0.00 0.00 0.00 51 1007.9
20260509201548 75 145 1.0 2.0 0.00 0.00 0.00 51 1008.1
20260509201046 76 89 1.0 1.0 0.00 0.00 0.00 51 1008.1
20260509200545 75 270 4.0 6.0 0.00 0.00 0.00 51 1008.3
20260509200042 75 103 0.0 1.0 0.00 0.00 0.00 52 1008.4
20260509195537 75 239 3.0 3.0 0.00 0.00 0.00 49 1008.7
20260509195032 75 93 2.0 2.0 0.00 0.00 0.00 52 1008.4
20260509194527 75 177 5.0 8.0 0.00 0.00 0.00 51 1008.6
20260509194025 75 247 4.0 6.0 0.00 0.00 0.00 51 1008.4
20260509193525 74 209 3.0 5.0 0.00 0.00 0.00 53 1008.8
20260509193022 74 107 0.0 0.0 0.00 0.00 0.00 57 1008.9
20260509192518 72 103 0.0 0.0 0.00 0.00 0.00 55 1008.7
20260509192013 72 98 1.0 1.0 0.00 0.00 0.00 55 1008.9
20260509191508 71 112 0.0 1.0 0.00 0.00 0.00 57 1009.0
20260509191004 72 171 2.0 3.0 0.00 0.00 0.00 55 1009.0
20260509190501 71 79 0.0 0.0 0.00 0.00 0.00 58 1009.1
20260509185959 70 125 0.0 1.0 0.00 0.00 0.00 58 1009.1
20260509185456 70 201 3.0 3.0 0.00 0.00 0.00 57 1009.2
20260509184952 70 214 3.0 5.0 0.00 0.00 0.00 57 1009.3
20260509184451 70 115 1.0 1.0 0.00 0.00 0.00 58 1009.3
20260509183947 70 209 4.0 6.0 0.00 0.00 0.00 56 1009.4
20260509183441 70 107 0.0 0.0 0.00 0.00 0.00 59 1009.5
20260509182938 70 149 1.0 1.0 0.00 0.00 0.00 57 1009.4
20260509182434 70 305 4.0 7.0 0.00 0.00 0.00 57 1009.6
20260509181931 71 200 0.0 2.0 0.00 0.00 0.00 57 1009.6
20260509181430 71 128 0.0 1.0 0.00 0.00 0.00 58 1009.6
20260509180927 71 108 1.0 1.0 0.00 0.00 0.00 57 1009.8
20260509180422 71 106 1.0 2.0 0.00 0.00 0.00 56 1009.8
20260509175919 71 202 1.0 1.0 0.00 0.00 0.00 55 1010.0
20260509175415 70 95 2.0 3.0 0.00 0.00 0.00 56 1010.0
20260509174911 71 231 3.0 6.0 0.00 0.00 0.00 55 1009.9
20260509174408 72 176 1.0 2.0 0.00 0.00 0.00 55 1010.2
20260509173903 70 225 1.0 5.0 0.00 0.00 0.00 56 1010.1
20260509173358 70 103 2.0 3.0 0.00 0.00 0.00 57 1009.9
20260509172854 70 216 3.0 8.0 0.00 0.00 0.00 55 1009.9
20260509172351 71 254 5.0 7.0 0.00 0.00 0.00 53 1010.1
20260509171847 72 171 2.0 5.0 0.00 0.00 0.00 53 1010.1
20260509171343 73 111 4.0 7.0 0.00 0.00 0.00 52 1010.1
20260509170840 73 211 3.0 3.0 0.00 0.00 0.00 54 1010.2
20260509170336 71 189 1.0 1.0 0.00 0.00 0.00 54 1010.1
20260509165830 70 103 0.0 0.0 0.00 0.00 0.00 56 1010.0
20260509165325 69 179 2.0 3.0 0.00 0.00 0.00 56 1010.3
20260509164821 69 267 0.0 0.0 0.00 0.00 0.00 59 1010.5
20260509164318 69 134 2.0 2.0 0.00 0.00 0.00 58 1010.4
20260509163814 69 243 2.0 6.0 0.00 0.00 0.00 58 1010.4
20260509163311 69 123 0.0 1.0 0.00 0.00 0.00 58 1010.4
20260509162810 69 196 1.0 2.0 0.00 0.00 0.00 57 1010.4
20260509162306 70 169 3.0 3.0 0.00 0.00 0.00 56 1010.5
20260509161759 69 225 1.0 3.0 0.00 0.00 0.00 57 1010.6
20260509161255 69 260 4.0 5.0 0.00 0.00 0.00 57 1010.5
20260509160751 69 233 5.0 10.0 0.00 0.00 0.00 58 1010.6
20260509160247 70 40 1.0 1.0 0.00 0.00 0.00 56 1010.3
20260509155742 70 66 2.0 3.0 0.00 0.00 0.00 56 1010.5
20260509155239 70 91 1.0 2.0 0.00 0.00 0.00 57 1010.5
20260509154735 70 148 2.0 2.0 0.00 0.00 0.00 57 1010.8
20260509154232 69 175 2.0 5.0 0.00 0.00 0.00 57 1010.7
20260509153730 69 226 6.0 7.0 0.00 0.00 0.00 55 1010.9
20260509153226 68 194 2.0 3.0 0.00 0.00 0.00 60 1010.6
20260509152722 68 123 1.0 2.0 0.00 0.00 0.00 60 1010.9
20260509152219 68 225 5.0 7.0 0.00 0.00 0.00 59 1010.9
20260509151716 68 131 3.0 6.0 0.00 0.00 0.00 58 1010.7
20260509151213 67 152 1.0 1.0 0.00 0.00 0.00 60 1010.7
20260509150710 67 187 2.0 2.0 0.00 0.00 0.00 59 1011.0
20260509150209 67 125 1.0 1.0 0.00 0.00 0.00 62 1010.7
20260509145704 66 130 1.0 1.0 0.00 0.00 0.00 63 1011.0
20260509145200 66 167 1.0 1.0 0.00 0.00 0.00 61 1011.0
20260509144656 66 134 1.0 1.0 0.00 0.00 0.00 61 1011.0
20260509144154 65 221 5.0 7.0 0.00 0.00 0.00 62 1011.2
20260509143651 65 108 1.0 2.0 0.00 0.00 0.00 64 1011.3
20260509143148 64 215 3.0 5.0 0.00 0.00 0.00 64 1011.2
20260509142643 65 110 1.0 1.0 0.00 0.00 0.00 64 1011.5
20260509142141 64 182 1.0 2.0 0.00 0.00 0.00 65 1011.5
20260509141636 63 214 2.0 2.0 0.00 0.00 0.00 67 1011.5
20260509141133 62 122 1.0 2.0 0.00 0.00 0.00 67 1011.5
20260509140630 63 170 1.0 2.0 0.00 0.00 0.00 67 1011.4
20260509140128 62 98 1.0 2.0 0.00 0.00 0.00 68 1011.4
20260509135625 62 216 3.0 5.0 0.00 0.00 0.00 68 1011.3
20260509135123 61 113 1.0 2.0 0.00 0.00 0.00 69 1011.4
20260509134619 61 116 3.0 5.0 0.00 0.00 0.00 70 1011.3
20260509134117 60 238 3.0 5.0 0.00 0.00 0.00 70 1011.4
20260509133614 60 167 0.0 1.0 0.00 0.00 0.00 71 1011.5
20260509133111 60 128 0.0 1.0 0.00 0.00 0.00 71 1011.6